EW3852 Weather Reports


time (UTC)temp
C
wind
direction
speed
KPH
gust
KPH
rain 1hr
cm
rain 24hr
cm
rain mn
cm
humidity
%
barometer
mb
20260507213202 8 183 3.2 9.7 0.00 0.00 0.00 51 1011.4
20260507212703 8 185 3.2 12.9 0.00 0.00 0.00 48 1011.3
20260507212203 8 174 3.2 16.1 0.00 0.00 0.00 50 1011.4
20260507211703 8 194 4.8 11.3 0.00 0.00 0.00 50 1011.4
20260507210703 8 255 3.2 8.0 0.00 0.00 0.00 49 1011.5
20260507210203 8 226 3.2 12.9 0.00 0.00 0.00 48 1011.6
20260507205703 9 180 8.0 14.5 0.00 0.00 0.00 49 1011.6
20260507205203 8 253 4.8 11.3 0.00 0.00 0.00 50 1011.6
20260507204703 8 266 3.2 11.3 0.00 0.00 0.00 49 1011.7
20260507204203 8 175 4.8 12.9 0.00 0.00 0.00 50 1011.7
20260507203702 8 168 4.8 11.3 0.00 0.00 0.00 48 1011.8
20260507203203 9 178 4.8 19.3 0.00 0.00 0.00 47 1011.8
20260507202703 9 169 4.8 14.5 0.00 0.00 0.00 49 1011.7
20260507202203 9 180 4.8 14.5 0.00 0.00 0.00 47 1011.8
20260507201703 9 175 8.0 19.3 0.00 0.00 0.00 46 1011.9
20260507201202 9 236 4.8 14.5 0.00 0.00 0.00 46 1011.9
20260507200203 8 230 4.8 11.3 0.00 0.00 0.00 47 1011.9
20260507195703 8 205 8.0 14.5 0.00 0.00 0.00 44 1012.0
20260507195203 9 204 4.8 12.9 0.00 0.00 0.00 46 1012.0
20260507194703 9 182 8.0 14.5 0.00 0.00 0.00 46 1012.1
20260507194203 9 172 4.8 9.7 0.00 0.00 0.00 46 1012.1
20260507193704 9 299 4.8 8.0 0.00 0.00 0.00 45 1012.1
20260507193203 9 249 3.2 8.0 0.00 0.00 0.00 46 1012.1
20260507192703 9 181 4.8 11.3 0.00 0.00 0.00 46 1012.2
20260507192203 9 273 4.8 11.3 0.00 0.00 0.00 48 1012.3
20260507191703 9 196 6.4 9.7 0.00 0.00 0.00 48 1012.4
20260507191203 9 257 4.8 9.7 0.00 0.00 0.00 47 1012.3
20260507190704 8 310 3.2 9.7 0.00 0.00 0.00 46 1012.3
20260507190203 8 266 4.8 16.1 0.00 0.00 0.00 46 1012.4
20260507185703 8 245 4.8 11.3 0.00 0.00 0.00 45 1012.4
20260507185203 8 232 6.4 11.3 0.00 0.00 0.00 46 1012.3
20260507184203 8 190 3.2 9.7 0.00 0.00 0.00 47 1012.2
20260507183703 8 234 3.2 12.9 0.00 0.00 0.00 49 1012.4
20260507183203 8 189 8.0 14.5 0.00 0.00 0.00 48 1012.4
20260507182703 8 325 4.8 8.0 0.00 0.00 0.00 48 1012.4
20260507182204 8 226 6.4 11.3 0.00 0.00 0.00 49 1012.5
20260507181703 8 174 6.4 16.1 0.00 0.00 0.00 48 1012.5
20260507181203 8 225 8.0 19.3 0.00 0.00 0.00 47 1012.5
20260507180703 8 190 4.8 14.5 0.00 0.00 0.00 48 1012.6
20260507180204 8 208 4.8 12.9 0.00 0.00 0.00 48 1012.5
20260507175704 8 257 4.8 12.9 0.00 0.00 0.00 49 1012.6
20260507174704 8 191 4.8 11.3 0.00 0.00 0.00 50 1012.6
20260507174203 8 265 3.2 14.5 0.00 0.00 0.00 50 1012.6
20260507173704 8 296 3.2 8.0 0.00 0.00 0.00 48 1012.6
20260507173204 8 234 4.8 14.5 0.00 0.00 0.00 47 1012.7
20260507172703 8 245 6.4 12.9 0.00 0.00 0.00 48 1012.8
20260507172204 8 249 6.4 12.9 0.00 0.00 0.00 47 1012.9
20260507171703 9 252 8.0 12.9 0.00 0.00 0.00 47 1013.0
20260507171204 8 331 3.2 12.9 0.00 0.00 0.00 48 1013.0
20260507170704 8 287 3.2 4.8 0.00 0.00 0.00 48 1013.2
20260507170203 8 44 4.8 19.3 0.00 0.00 0.00 48 1013.2
20260507165704 8 245 3.2 12.9 0.00 0.00 0.00 51 1013.2
20260507165203 8 248 4.8 12.9 0.00 0.00 0.00 48 1013.3
20260507164703 8 291 4.8 12.9 0.00 0.00 0.00 50 1013.4
20260507164204 7 242 4.8 16.1 0.00 0.00 0.00 50 1013.5
20260507163703 7 271 4.8 12.9 0.00 0.00 0.00 49 1013.5
20260507163203 7 115 3.2 11.3 0.00 0.00 0.00 51 1013.6
20260507162704 7 242 8.0 14.5 0.00 0.00 0.00 51 1013.7
20260507162204 7 40 4.8 11.3 0.00 0.00 0.00 53 1013.7
20260507161203 7 245 4.8 12.9 0.00 0.00 0.00 58 1013.9
20260507160704 7 266 4.8 11.3 0.00 0.00 0.00 61 1013.9
20260507160204 6 212 8.0 11.3 0.00 0.00 0.00 60 1013.9
20260507155704 6 296 3.2 8.0 0.00 0.00 0.00 65 1014.0
20260507155204 6 257 3.2 4.8 0.00 0.00 0.00 66 1014.0
20260507154702 5 243 4.8 11.3 0.00 0.00 0.00 65 1014.1
20260507154202 5 254 4.8 8.0 0.00 0.00 0.00 65 1014.0
20260507153703 5 249 4.8 8.0 0.00 0.00 0.00 66 1014.0
20260507153203 5 252 1.6 4.8 0.00 0.00 0.00 66 1014.0
20260507152203 5 251 3.2 4.8 0.00 0.00 0.00 67 1014.0
20260507151702 5 245 1.6 4.8 0.00 0.00 0.00 68 1014.0
20260507150703 5 227 3.2 4.8 0.00 0.00 0.00 69 1014.0
20260507150203 5 213 0.0 0.0 0.00 0.00 0.00 70 1014.0
20260507145703 5 222 0.0 4.8 0.00 0.00 0.00 69 1014.0
20260507145202 5 241 3.2 4.8 0.00 0.00 0.00 68 1014.0
20260507144202 5 240 3.2 4.8 0.00 0.00 0.00 68 1014.1
20260507143702 5 244 1.6 3.2 0.00 0.00 0.00 68 1014.1
20260507142702 5 235 3.2 4.8 0.00 0.00 0.00 68 1014.1
20260507142203 5 228 1.6 4.8 0.00 0.00 0.00 69 1014.1
20260507141703 5 210 1.6 4.8 0.00 0.00 0.00 69 1014.1
20260507141202 5 230 3.2 4.8 0.00 0.00 0.00 69 1014.1
20260507140703 5 215 4.8 8.0 0.00 0.00 0.00 68 1014.1
20260507135703 5 253 3.2 4.8 0.00 0.00 0.00 69 1014.2
20260507135203 5 239 1.6 4.8 0.00 0.00 0.00 69 1014.1
20260507134702 5 218 3.2 4.8 0.00 0.00 0.00 68 1014.1
20260507134203 5 247 3.2 4.8 0.00 0.00 0.00 69 1014.2
20260507133703 5 280 1.6 4.8 0.00 0.00 0.00 69 1014.1
20260507133202 5 90 1.6 4.8 0.00 0.00 0.00 71 1014.1
20260507132704 5 245 1.6 4.8 0.00 0.00 0.00 70 1014.0
20260507132203 5 224 3.2 4.8 0.00 0.00 0.00 71 1013.9
20260507131703 5 236 1.6 3.2 0.00 0.00 0.00 71 1013.9
20260507131203 5 234 1.6 4.8 0.00 0.00 0.00 72 1013.9
20260507130702 5 241 3.2 4.8 0.00 0.00 0.00 72 1013.9
20260507130203 5 238 3.2 4.8 0.00 0.00 0.00 74 1013.9
20260507125703 5 168 3.2 4.8 0.00 0.00 0.00 76 1013.8
20260507125202 5 166 3.2 4.8 0.00 0.00 0.00 78 1013.8
20260507124703 5 227 1.6 4.8 0.00 0.00 0.00 80 1013.8
20260507124202 5 163 3.2 4.8 0.00 0.00 0.00 82 1013.8
20260507123203 4 222 3.2 4.8 0.00 0.00 0.00 87 1013.7
20260507122705 3 237 1.6 4.8 0.00 0.00 0.00 91 1013.7
20260507122203 3 235 3.2 4.8 0.00 0.00 0.00 95 1013.7
20260507121702 2 203 1.6 4.8 0.00 0.00 0.00 96 1013.7
20260507121203 2 198 1.6 4.8 0.00 0.00 0.00 95 1013.7
20260507120703 1 144 0.0 1.6 0.00 0.00 0.00 95 1013.6
20260507120203 1 144 0.0 0.0 0.00 0.00 0.00 95 1013.6
20260507115703 0 144 0.0 1.6 0.00 0.00 0.00 95 1013.6
20260507115203 0 144 0.0 3.2 0.00 0.00 0.00 94 1013.5
20260507114703 0 144 0.0 3.2 0.00 0.00 0.00 94 1013.3
20260507114203 0 144 1.6 3.2 0.00 0.00 0.00 94 1013.3
20260507113703 0 144 0.0 3.2 0.00 0.00 0.00 94 1013.2
20260507113204 0 144 0.0 0.0 0.00 0.00 0.00 94 1013.2
20260507112703 0 144 0.0 0.0 0.00 0.00 0.00 93 1013.2
20260507112203 -1 144 0.0 1.6 0.00 0.00 0.00 93 1013.1
20260507111703 -1 144 0.0 0.0 0.00 0.00 0.00 93 1013.0
20260507111203 -1 144 0.0 0.0 0.00 0.00 0.00 93 1013.0
20260507110703 -1 144 0.0 0.0 0.00 0.00 0.00 93 1012.9
20260507105703 -1 144 0.0 1.6 0.00 0.00 0.00 93 1012.8
20260507105203 -1 144 0.0 0.0 0.00 0.00 0.00 93 1012.8
20260507104704 -1 144 0.0 0.0 0.00 0.00 0.00 92 1012.7
20260507104203 -1 144 0.0 0.0 0.00 0.00 0.00 92 1012.7
20260507103703 -1 144 0.0 0.0 0.00 0.00 0.00 92 1012.7
20260507103203 -1 144 0.0 0.0 0.00 0.00 0.00 92 1012.7
20260507102704 -1 144 0.0 0.0 0.00 0.00 0.00 92 1012.7
20260507102203 -1 144 0.0 0.0 0.00 0.00 0.00 92 1012.6
20260507101703 0 144 0.0 0.0 0.00 0.00 0.00 92 1012.6
20260507100703 0 144 0.0 0.0 0.00 0.00 0.00 92 1012.6
20260507100203 0 144 0.0 0.0 0.00 0.00 0.00 91 1012.7
20260507095703 0 144 0.0 0.0 0.00 0.00 0.00 91 1012.6
20260507094703 0 144 0.0 0.0 0.00 0.00 0.00 91 1012.7
20260507094203 0 144 0.0 0.0 0.00 0.00 0.00 91 1012.7
20260507093703 0 144 0.0 0.0 0.00 0.00 0.00 91 1012.7
20260507093203 0 144 0.0 0.0 0.00 0.00 0.00 91 1012.7
20260507092703 0 144 0.0 0.0 0.00 0.00 0.00 91 1012.7
20260507092203 0 144 0.0 0.0 0.00 0.00 0.00 90 1012.8
20260507091703 0 144 0.0 0.0 0.00 0.00 0.00 90 1012.8
20260507091203 0 144 0.0 0.0 0.00 0.00 0.00 91 1012.8
20260507090703 0 144 0.0 0.0 0.00 0.00 0.00 90 1012.8
20260507090203 0 144 0.0 0.0 0.00 0.00 0.00 90 1012.8
20260507085704 0 144 0.0 1.6 0.00 0.00 0.00 90 1012.9
20260507085203 0 144 0.0 0.0 0.00 0.00 0.00 90 1013.0
20260507084704 0 144 0.0 0.0 0.00 0.00 0.00 89 1013.0
20260507084203 1 144 0.0 0.0 0.00 0.00 0.00 89 1012.9
20260507083704 1 144 0.0 0.0 0.00 0.00 0.00 89 1013.0
20260507083203 1 144 0.0 0.0 0.00 0.00 0.00 89 1013.0
20260507082703 1 144 0.0 0.0 0.00 0.00 0.00 89 1012.9
20260507082204 1 144 0.0 0.0 0.00 0.00 0.00 89 1012.9
20260507081703 1 144 0.0 0.0 0.00 0.00 0.00 88 1013.0
20260507081204 1 144 0.0 0.0 0.00 0.00 0.00 88 1013.0
20260507080204 1 144 0.0 0.0 0.00 0.00 0.00 87 1013.0
20260507075703 2 144 0.0 0.0 0.00 0.00 0.00 87 1013.0
20260507074703 2 144 0.0 0.0 0.00 0.00 0.00 86 1013.0
20260507074204 2 144 0.0 0.0 0.00 0.00 0.00 85 1013.1
20260507073703 2 144 0.0 0.0 0.00 0.00 0.00 85 1013.1
20260507073203 2 144 0.0 0.0 0.00 0.00 0.00 85 1013.0
20260507072703 2 144 0.0 0.0 0.00 0.00 0.00 84 1013.1
20260507072204 3 144 0.0 0.0 0.00 0.00 0.00 84 1013.1
20260507071703 3 144 0.0 0.0 0.00 0.00 0.00 83 1013.2
20260507071204 3 144 0.0 0.0 0.00 0.00 0.00 83 1013.2
20260507070703 3 144 0.0 0.0 0.00 0.00 0.00 83 1013.2
20260507065704 3 144 0.0 0.0 0.00 0.00 0.00 82 1013.3
20260507065203 4 144 0.0 0.0 0.00 0.00 0.00 82 1013.4
20260507064704 4 144 0.0 0.0 0.00 0.00 0.00 82 1013.3
20260507064203 4 144 0.0 0.0 0.00 0.00 0.00 82 1013.4
20260507063704 4 144 0.0 0.0 0.00 0.00 0.00 82 1013.4
20260507063202 4 144 0.0 0.0 0.00 0.00 0.00 82 1013.4
20260507062702 4 144 0.0 0.0 0.00 0.00 0.00 82 1013.3
20260507062203 4 144 0.0 0.0 0.00 0.00 0.00 82 1013.3
20260507061702 4 144 0.0 0.0 0.00 0.00 0.00 82 1013.3
20260507061203 5 144 0.0 0.0 0.00 0.00 0.00 82 1013.4
20260507060703 5 144 0.0 0.0 0.00 0.00 0.00 82 1013.4
20260507055702 5 144 0.0 0.0 0.00 0.00 0.00 81 1013.4
20260507055203 5 144 1.6 1.6 0.00 0.00 0.00 80 1013.4
20260507054702 5 144 0.0 0.0 0.00 0.00 0.00 80 1013.4
20260507054203 5 144 0.0 0.0 0.00 0.00 0.00 80 1013.4
20260507053702 5 144 0.0 1.6 0.00 0.00 0.00 80 1013.4
20260507053203 5 144 0.0 1.6 0.00 0.00 0.00 79 1013.4
20260507052702 5 144 0.0 0.0 0.00 0.00 0.00 79 1013.5
20260507051702 5 228 0.0 3.2 0.00 0.00 0.00 78 1013.6
20260507051203 5 228 0.0 4.8 0.00 0.00 0.00 78 1013.6
20260507050203 5 246 1.6 4.8 0.00 0.00 0.00 76 1013.6
20260507045703 5 238 3.2 4.8 0.00 0.00 0.00 75 1013.6
20260507045202 6 227 3.2 11.3 0.00 0.00 0.00 74 1013.6
20260507044702 6 202 3.2 4.8 0.00 0.00 0.00 72 1013.5
20260507044203 6 164 3.2 4.8 0.00 0.00 0.00 72 1013.5
20260507042702 6 277 1.6 4.8 0.00 0.00 0.00 69 1013.5
20260507041703 6 243 3.2 11.3 0.00 0.00 0.00 72 1013.3
20260507040703 6 259 0.0 4.8 0.00 0.00 0.00 74 1013.4
20260507040203 6 167 0.0 0.0 0.00 0.00 0.00 76 1013.4
20260507035702 6 167 0.0 0.0 0.00 0.00 0.00 77 1013.4
20260507035203 6 167 0.0 0.0 0.00 0.00 0.00 77 1013.4
20260507034703 6 186 0.0 0.0 0.00 0.00 0.00 78 1013.4
20260507034203 6 186 0.0 0.0 0.00 0.00 0.00 77 1013.4
20260507033703 5 186 0.0 0.0 0.00 0.00 0.00 77 1013.5
20260507033203 5 186 0.0 0.0 0.00 0.00 0.00 76 1013.5
20260507032703 5 186 0.0 0.0 0.00 0.00 0.00 76 1013.4
20260507032202 5 186 0.0 0.0 0.00 0.00 0.00 76 1013.4
20260507031703 5 186 0.0 0.0 0.00 0.00 0.00 75 1013.4
20260507031202 5 186 0.0 0.0 0.00 0.00 0.00 74 1013.4
20260507030703 5 186 0.0 0.0 0.00 0.00 0.00 74 1013.3
20260507030203 5 186 0.0 0.0 0.00 0.00 0.00 73 1013.3
20260507025703 6 186 0.0 0.0 0.00 0.00 0.00 72 1013.4
20260507025202 6 186 0.0 0.0 0.00 0.00 0.00 72 1013.4
20260507024703 6 186 0.0 0.0 0.00 0.00 0.00 71 1013.3
20260507024202 6 186 0.0 0.0 0.00 0.00 0.00 71 1013.3
20260507023703 6 186 0.0 0.0 0.00 0.00 0.00 70 1013.3
20260507023203 6 186 0.0 0.0 0.00 0.00 0.00 70 1013.3
20260507022703 6 186 0.0 0.0 0.00 0.00 0.00 69 1013.3
20260507022203 6 186 0.0 0.0 0.00 0.00 0.00 68 1013.2
20260507021703 6 186 0.0 0.0 0.00 0.00 0.00 68 1013.1
20260507021203 6 186 0.0 0.0 0.00 0.00 0.00 68 1013.1
20260507020703 6 178 0.0 0.0 0.00 0.00 0.00 67 1013.1
20260507020203 6 178 0.0 0.0 0.00 0.00 0.00 67 1013.1
20260507015703 6 178 0.0 0.0 0.00 0.00 0.00 66 1013.2
20260507015203 6 178 0.0 0.0 0.00 0.00 0.00 66 1013.2
20260507014203 6 165 0.0 0.0 0.00 0.00 0.00 65 1013.1
20260507013703 6 165 0.0 1.6 0.00 0.00 0.00 64 1013.1
20260507013204 6 165 1.6 3.2 0.00 0.00 0.00 64 1013.1
20260507012703 6 171 0.0 0.0 0.00 0.00 0.00 64 1013.1
20260507012203 6 174 1.6 3.2 0.00 0.00 0.00 63 1013.1
20260507011703 6 178 1.6 4.8 0.00 0.00 0.00 62 1013.1
20260507010703 6 227 1.6 4.8 0.00 0.00 0.00 61 1013.1
20260507010203 6 178 1.6 3.2 0.00 0.00 0.00 61 1013.1
20260507005703 6 165 0.0 1.6 0.00 0.00 0.00 60 1013.0
20260507005203 7 165 1.6 4.8 0.00 0.00 0.00 59 1013.0
20260507004703 7 169 1.6 3.2 0.00 0.00 0.00 59 1012.9
20260507004203 7 169 3.2 4.8 0.00 0.00 0.00 59 1012.9
20260507003704 7 159 1.6 4.8 0.00 0.00 0.00 59 1012.9
20260507003203 7 173 0.0 1.6 0.00 0.00 0.00 59 1012.9
20260507001703 7 160 1.6 3.2 0.00 0.00 0.00 58 1012.8
20260507001203 7 160 1.6 3.2 0.00 0.00 0.00 56 1012.8
20260507000704 7 160 1.6 4.8 0.00 0.00 0.00 56 1012.7
20260507000205 7 163 1.6 4.8 0.00 0.00 0.00 56 1012.6
20260506235703 7 161 1.6 4.8 0.00 0.00 0.00 55 1012.6
20260506235203 7 168 3.2 4.8 0.00 0.00 0.00 53 1012.7
20260506234203 8 166 3.2 8.0 0.00 0.00 0.00 51 1012.7
20260506233703 8 168 3.2 8.0 0.00 0.00 0.00 52 1012.7
20260506233204 8 230 1.6 4.8 0.00 0.00 0.00 51 1012.7
20260506232703 8 225 1.6 4.8 0.00 0.00 0.00 51 1012.7
20260506232203 8 243 3.2 4.8 0.00 0.00 0.00 50 1012.6
20260506231704 8 248 3.2 4.8 0.00 0.00 0.00 49 1012.6
20260506231203 8 168 3.2 9.7 0.00 0.00 0.00 49 1012.6
20260506230203 8 249 3.2 4.8 0.00 0.00 0.00 49 1012.7
20260506225703 8 230 3.2 8.0 0.00 0.00 0.00 49 1012.7
20260506225203 8 197 3.2 4.8 0.00 0.00 0.00 49 1012.7
20260506224703 9 242 3.2 8.0 0.00 0.00 0.00 47 1012.7
20260506223703 9 232 3.2 4.8 0.00 0.00 0.00 49 1012.7
20260506223204 9 195 1.6 4.8 0.00 0.00 0.00 49 1012.7
20260506222703 8 239 3.2 8.0 0.00 0.00 0.00 50 1012.8
20260506222204 8 170 4.8 11.3 0.00 0.00 0.00 49 1012.8
20260506221704 8 241 1.6 3.2 0.00 0.00 0.00 51 1012.8
20260506221203 8 280 3.2 4.8 0.00 0.00 0.00 51 1012.9
20260506220703 8 168 3.2 4.8 0.00 0.00 0.00 53 1012.8
20260506220204 8 196 1.6 4.8 0.00 0.00 0.00 53 1012.8
20260506215704 8 256 3.2 9.7 0.00 0.00 0.00 51 1012.8
20260506215203 8 219 3.2 8.0 0.00 0.00 0.00 52 1012.8
20260506214704 8 173 3.2 8.0 0.00 0.00 0.00 51 1012.8
20260506214204 8 170 3.2 4.8 0.00 0.00 0.00 52 1012.8
20260506213704 8 244 3.2 4.8 0.00 0.00 0.00 52 1012.7